TimeCDT,TemperatureF,Dew PointF,Humidity,Sea Level PressureIn,VisibilityMPH,Wind Direction,Wind SpeedMPH,Gust SpeedMPH,PrecipitationIn,Events,Conditions,WindDirDegrees,DateUTC
12:15 AM,77.5,75.6,94,30.14,5.0,Calm,Calm,-,N/A,,Clear,0,2013-07-09 05:15:00
12:35 AM,77.4,75.6,94,30.14,5.0,Calm,Calm,-,N/A,,Clear,0,2013-07-09 05:35:00
12:55 AM,77.0,75.2,94,30.14,2.0,SSE,4.6,-,N/A,,Clear,150,2013-07-09 05:55:00
1:15 AM,77.0,75.4,95,30.14,4.0,Calm,Calm,-,N/A,,Scattered Clouds,0,2013-07-09 06:15:00
1:35 AM,77.2,75.7,95,30.14,4.0,Calm,Calm,-,N/A,,Scattered Clouds,0,2013-07-09 06:35:00
1:55 AM,77.0,75.6,95,30.14,3.0,Calm,Calm,-,N/A,,Scattered Clouds,0,2013-07-09 06:55:00
2:15 AM,77.2,75.6,95,30.14,4.0,Calm,Calm,-,N/A,,Mostly Cloudy,0,2013-07-09 07:15:00
2:35 AM,77.0,75.6,95,30.13,2.0,Calm,Calm,-,N/A,,Scattered Clouds,0,2013-07-09 07:35:00
2:55 AM,76.6,75.2,95,30.13,3.0,Calm,Calm,-,N/A,,Clear,0,2013-07-09 07:55:00
3:15 AM,76.3,74.8,95,30.13,3.0,East,3.5,-,N/A,,Clear,100,2013-07-09 08:15:00
3:35 AM,75.6,74.3,96,30.12,2.5,Calm,Calm,-,N/A,,Clear,0,2013-07-09 08:35:00
3:55 AM,76.1,74.5,95,30.12,4.0,Calm,Calm,-,N/A,,Clear,0,2013-07-09 08:55:00
4:15 AM,75.4,74.1,96,30.12,0.8,Calm,Calm,-,N/A,,Mist,0,2013-07-09 09:15:00
4:35 AM,75.2,74.1,96,30.13,1.0,ESE,3.5,-,N/A,,Mist,110,2013-07-09 09:35:00
4:55 AM,75.4,74.1,96,30.13,0.2,Calm,Calm,-,N/A,Fog,Fog,0,2013-07-09 09:55:00
5:15 AM,75.2,73.9,96,30.13,0.2,Calm,Calm,-,N/A,Fog,Fog,0,2013-07-09 10:15:00
5:35 AM,75.2,73.9,96,30.13,2.0,East,3.5,-,N/A,,Clear,90,2013-07-09 10:35:00
5:55 AM,74.5,73.4,96,30.14,0.2,East,4.6,-,N/A,Fog,Fog,90,2013-07-09 10:55:00
6:00 AM,73.4,73.4,100,30.13,2.0,East,4.6,-,N/A,,Mist,100,2013-07-09 11:00:00
6:15 AM,74.7,73.6,96,30.14,0.8,Calm,Calm,-,N/A,,Overcast,0,2013-07-09 11:15:00
6:35 AM,75.2,73.9,96,30.15,2.0,Calm,Calm,-,N/A,,Scattered Clouds,0,2013-07-09 11:35:00
6:55 AM,75.2,74.1,96,30.15,2.0,Calm,Calm,-,N/A,,Scattered Clouds,0,2013-07-09 11:55:00
7:24 AM,75.2,75.2,100,30.15,6.0,Calm,Calm,-,N/A,,Clear,0,2013-07-09 12:24:00
7:50 AM,78.8,77.0,94,30.16,7.0,Calm,Calm,-,N/A,,Clear,0,2013-07-09 12:50:00
8:50 AM,84.2,77.0,79,30.18,10.0,Calm,Calm,-,N/A,,Scattered Clouds,0,2013-07-09 13:50:00
9:45 AM,87.8,73.4,62,30.17,10.0,Calm,Calm,-,N/A,,Scattered Clouds,0,2013-07-09 14:45:00
10:50 AM,89.6,71.6,55,30.18,10.0,ESE,4.6,-,N/A,,Scattered Clouds,110,2013-07-09 15:50:00
11:45 AM,91.4,71.6,52,30.16,10.0,ESE,6.9,-,N/A,,Scattered Clouds,120,2013-07-09 16:45:00
1:50 PM,93.2,68.0,44,30.13,10.0,South,3.5,-,N/A,,Mostly Cloudy,180,2013-07-09 18:50:00
2:55 PM,89.6,73.4,59,30.12,10.0,South,16.1,-,N/A,Rain,Light Rain,180,2013-07-09 19:55:00
3:50 PM,91.4,69.8,49,30.11,10.0,SSE,13.8,20.7,N/A,,Scattered Clouds,160,2013-07-09 20:50:00
4:50 PM,89.6,73.4,59,30.10,10.0,South,9.2,-,N/A,,Mostly Cloudy,180,2013-07-09 21:50:00
5:50 PM,89.6,71.6,55,30.09,10.0,South,10.4,-,N/A,,Mostly Cloudy,170,2013-07-09 22:50:00
6:50 PM,87.8,71.6,58,30.09,10.0,South,11.5,16.1,N/A,,Mostly Cloudy,170,2013-07-09 23:50:00
7:50 PM,84.2,73.4,70,30.08,10.0,South,6.9,-,N/A,,Clear,180,2013-07-10 00:50:00
8:50 PM,82.4,73.4,74,30.08,10.0,South,5.8,-,N/A,,Clear,170,2013-07-10 01:50:00
9:50 PM,80.6,73.4,79,30.09,10.0,South,6.9,-,N/A,,Clear,180,2013-07-10 02:50:00
11:15 PM,78.4,75.2,90,30.11,10.0,Calm,Calm,-,N/A,,Clear,0,2013-07-10 04:15:00
11:35 PM,77.9,75.2,91,30.11,10.0,Calm,Calm,-,N/A,,Clear,0,2013-07-10 04:35:00
11:55 PM,77.0,74.7,92,30.10,10.0,SSE,5.8,-,N/A,,Clear,150,2013-07-10 04:55:00